Regional Weather Roundup
Issued by NWS Grand Forks, ND

Home | Current Version | Previous Version | Graphics & Text | Print | Product List | Glossary On
Versions: 1 2 3 4 5 6 7 8 9 10 11 12 13 14 15 16 17 18 19 20 21 22 23 24 25 26 27 28 29 30 31 32 33 34 35 36 37 38 39 40 41 42 43 44 45 46 47 48 49 50
000
ASUS43 KFGF 291731
RWRFGF
PRAIRIE TO PINES  WEATHER ROUNDUP
NATIONAL WEATHER SERVICE EASTERN NORTH DAKOTA/GRAND FORKS ND
1200 PM CDT WED MAR 29 2017

 **SATELLITE DATA USED TO AUGMENT SKY COVER AT AUTOMATED STATIONS**
 *****  WEATHER ACROSS EASTERN NORTH DAKOTA  *****

CITY           SKY/WX    TMP DP  RH WIND       PRES   REMARKS
GRAND FORKS    FAIR      50  41  71 S9        30.14F
GRAND FRKS AFB FAIR      53  42  67 SE7       30.13F
DEVILS LAKE    FAIR      52  39  61 SW12      30.10F
FARGO          FAIR      55  38  52 S13       30.15F
WAHPETON ARPT  FAIR      52  37  58 SE9       30.16
$$

 ***** WEATHER ACROSS CENTRAL AND WESTERN NORTH DAKOTA  *****

CITY           SKY/WX    TMP DP  RH WIND       PRES   REMARKS
BISMARCK       FAIR      57  41  55 S7        30.10F
MINOT          PTSUNNY   54  43  66 S12       30.02F
JAMESTOWN      FAIR      56  41  57 S12       30.11F
MINOT AFB      CLOUDY    50  44  79 SW9       30.01F
GARRISON         N/A     51  42  71 S9        30.05F
WILLISTON      FAIR      51  41  68 S12       29.99F
DICKINSON      FAIR      48  42  80 S12       30.04F
HETTINGER      FAIR      51  41  68 SW9       30.08F
$$

 *****  OTHER AIRPORT OBSERVATIONS IN OUR AREA  *****

CITY           SKY/WX    TMP DP  RH WIND       PRES   REMARKS
WALHALLA       NOT AVBL
GRAFTON AIRPOR FAIR      52  45  76 S8        30.13F
VALLEY CITY AR FAIR      55  41  58 S8        30.14F
CANDO          NOT AVBL
CAVALIER APRT  FAIR      48  41  76 S9        30.10F
GWINNER        SUNNY     59  39  47 MISG      30.13F
SHEYENNE NWR     N/A     55  38  53 S7        29.95S
ROLLA          FAIR      43  43 100 SW16      30.05F
 ***** THE ABOVE OBSERVATIONS ARE NON NWS ARE NOT QUALITY
       CONTROLLED AND MAY MIS-REPORT RAIN FOR SNOW...
$$

  *****  WEATHER ACROSS NORTHERN MINNESOTA  *****

CITY           SKY/WX    TMP DP  RH WIND       PRES   REMARKS
FLAG ISLAND    FAIR      37  28  70 S9        30.18F
WARROAD        FAIR      46  36  66 NE5       30.17F
ROSEAU         FAIR      54  37  54 SE7       30.15F
HALLOCK        FAIR      50  41  71 S13       30.13S
THF RVR FALLS  FAIR      49  35  58 S9        30.17F
BAUDETTE       FAIR      48  29  47 SE8       30.20F
WASKISH        FAIR      52  32  46 SE6       30.20S
CROOKSTON      FAIR      52  41  66 S9        30.16F
STEPHEN NDAWN    N/A     48  39  71 S10         N/A
GREENBUSH NDAW   N/A     52  39  62 S7          N/A
$$
  *****  WEATHER ACROSS CENTRAL AND WEST MINNESOTA  *****

CITY           SKY/WX    TMP DP  RH WIND       PRES   REMARKS
FOSSTON        FAIR      55  36  47 S9        30.16F
BEMIDJI        FAIR      44  30  57 SE10      30.19F
PARK RAPIDS    FAIR      44  28  53 SE7       30.20F
ELBOW LAKE     FAIR      52  35  52 SE7       30.17F
WADENA         FAIR      46  32  57 E8        30.19F
DETROIT LAKES  FAIR      46  32  57 SE8       30.18F
MOORHEAD       FAIR      52  37  58 S13       30.16F
FERGUS FALLS   FAIR      54  36  50 S10       30.20F
MORRIS MN      FAIR      54  37  54 SE14      30.16F
STAPLES        FAIR      46  30  53 E3        30.20F
$$
  *****  WEATHER ELSEWHERE ACROSS MINNESOTA  *****

CITY           SKY/WX    TMP DP  RH WIND       PRES   REMARKS
DULUTH         FAIR      37  31  78 E12       30.29F
INTRNTL FALLS  FAIR      43  27  53 SE9       30.24F
ELY            FAIR      41  27  56 SE9       30.29S
CLOQUET        FAIR      37  30  75 E12       30.28F
WHEATON        FAIR      54  37  54 SE10      30.18F
BRAINERD       FAIR      43  30  60 E6        30.24S
HIBBING        FAIR      40  28  62 SE10      30.27S
ALEXANDRIA     FAIR      49  33  54 SE10      30.20F
SAINT CLOUD    FAIR      45  34  65 E6        30.23F
MINNEAPOLIS    CLOUDY    50  33  52 SE9       30.24F
$$

  *****  WEATHER ACROSS SOUTH DAKOTA  *****

CITY           SKY/WX    TMP DP  RH WIND       PRES   REMARKS
SIOUX FALLS    LGT RAIN  48  42  80 E17       30.14S
BROOKINGS      FAIR      51  38  60 SE10      30.13F
WATERTOWN      FAIR      53  37  54 SE10      30.14F
HURON          FAIR      55  38  52 MISG      30.12F
SISSETON         N/A     52  41  66 SE8       30.15F
ABERDEEN       FAIR      54  36  50 SE7       30.13F
MITCHELL       PTSUNNY   52  39  61 SE12G21   30.13F
PIERRE         FAIR      57  41  55 VRB3      30.10F
MOBRIDGE       FAIR      58  39  49 S9        30.08F
RAPID CITY     PTSUNNY   50  42  74 NE6       30.09S
$$

  *****  SOME WEATHER IN NEARBY STATES *****

CITY           SKY/WX    TMP DP  RH WIND       PRES   REMARKS
GLASGOW MT     FAIR      55  28  35 W14       29.99F
GREAT FALLS MT CLOUDY    47  28  47 SW17      30.00F
CHEYENNE WY    PTSUNNY   42  30  62 NW14G23   30.10S
SCOTTSBLUFF NE CLOUDY    46  40  79 W7        30.10F
OMAHA NE       LGT RAIN  45  39  79 NE25G33   29.94F
DES MOINES IA  RAIN      44  42  93 NE18G25   30.01F FOG
DAVENPORT IA   LGT RAIN  43  41  93 E15       30.16R FOG
CHICAGO IL     CLOUDY    47  36  65 NE12      30.24S
EAU CLAIRE WI  FAIR      47  31  53 E9        30.27S
LA CROSSE WI   CLOUDY    45  33  63 E8        30.25F
$$

  *****  SOME NATIONAL WEATHER *****

CITY           SKY/WX    TMP DP  RH WIND       PRES   REMARKS
LA GUARDIA NY  FAIR      55  34  45 NW12      30.05F
RALEIGH NC     PTSUNNY   68  51  54 E7        30.09F
ATLANTA GA     FAIR      76  55  48 E6        30.06F
NEW ORLEANS LA FAIR      80  66  62 S15       29.99F
OKLAHOMA CITY  CLOUDY    54  52  93 W8        29.69R
ALBUQUERQUE NM CLOUDY    52  39  61 N9        30.02R
SALT LAKE CITY FAIR      47  29  49 CALM      30.26S
LOS ANGELES CA FAIR      69  52  54 CALM      30.05R
BOISE ID       CLOUDY    52  32  46 E17       30.15F
SEATTLE WA     CLOUDY    48  48 100 SE9       29.82S
$$

*** WEATHER ACROSS MANITOBA...SASKATCHEWAN AND ONTARIO ***
                ***ONTARIO***

CITY           SKY/WX    TMP DP  RH WIND       PRES   REMARKS
GERALDTON      CLOUDY    32  18  55 SE3       30.41F
THUNDER BAY    CLOUDY    36  27  69 E12       30.41F
SIOUX LOOKOUT  PTSUNNY   39  23  52 S7        30.27F
TORONTO        PTSUNNY   46  28  49 NE6       30.26F
BIG TROUT LK   SUNNY     32  19  59 S8        30.38F WCI  25
PICKLE LAKE    MOSUNNY   34  18  51 SE14      30.33F WCI  24
DRYDEN         PTSUNNY   41  25  52 SE8       30.24F
KENORA         MOSUNNY   46  28  49 SE9       30.19F
$$
                *** MANITOBA***

CITY           SKY/WX    TMP DP  RH WIND       PRES   REMARKS
BRANDON        CLOUDY    39  37  93 SE5       30.03F
DAUPHIN        MOSUNNY   39  32  75 VRB2      30.01F
ISLAND LAKE    PTSUNNY   34  23  64 SE7       30.21F
PILOT MOUND      N/A     43  39  87 S9          N/A
THE PAS        LGT RAIN  34  30  86 SE10      30.00F
THOMPSON       PTSUNNY   36  18  48 SE2       30.14F
WINNIPEG       PTSUNNY   48  37  66 S15       30.10F
LYNN LAKE      CLOUDY    32  23  69 SE10      30.04F WCI  24
CHURCHILL      PTSUNNY   19  10  68 SE8       30.29F WCI   9
GILLAM         PTSUNNY   37  18  44 SE7       30.23F
$$
                ***SASKATCHEWAN***

CITY           SKY/WX    TMP DP  RH WIND       PRES   REMARKS
ESTEVAN        CLOUDY    50  43  76 SW14      29.95F
KINDERSLEY     MOSUNNY   48  28  46 W7        29.85S
LLOYDMINSTER   FOG       36  36 100 N3        29.85F VSB 1/2
PRINCE ALBERT  LGT RAIN  36  34  93 E8        29.87F FOG
REGINA         PTSUNNY   50  32  50 SW10      29.89F
YORKTON        LGT RAIN  39  37  93 SW8       29.93F
N. BATTLEFORD  CLOUDY    36 N/A N/A W7        29.88R
LA RONGE       CLOUDY    34  28  80 E8        29.93F
SASKATOON      MOSUNNY   45  32  61 SW5       29.84S
SWIFT CURRENT  MOSUNNY   50  27  40 W14G21    29.86F
$$
NOTE: THESE ARE AUTOMATED STATIONS WITH LIMITED QUALITY CONTROL
      "FAIR" INDICATES FEW OR NO CLOUDS BELOW 12,000 FEET WITH NO
      SIGNIFICANT WEATHER AND/OR OBSTRUCTIONS TO VISIBILITY.
      SKY/WX - SKY CONDITION AND SIGNIFICANT WEATHER.
      TMP - AIR TEMPERATURE.    DP   - DEWPOINT TEMPERATURE.
      RH  - RELATIVE HUMIDITY.  PRES - PRESSURE.
      HX  - HEAT INDEX.         WCI  - WIND CHILL INDEX.
$




USA.gov is the U.S. government's official web portal to all federal, state and local government web resources and services.